Tracking 28126 objects as of 2-Oct-2023
HD Live streaming from Space Station
objects crossing your sky now

SL-8 DEB

Track SL-8 DEB now!
10-day predictions


NORAD ID: 21252
Int'l Code: 1991-009BK
Perigee: 1,479.3 km
Apogee: 1,678.3 km
Inclination: 74.1 °
Period: 117.6 minutes
Semi major axis: 7949 km
RCS: 0.066 m2 (small)
Launch date: February 12, 1991
Source: Commonwealth of Independent States (former USSR) (CIS)
Launch site: PLESETSK MISSILE AND SPACE COMPLEX (PKMTR)

Note: This is SATELLITE DEBRIS
Your satellite tracking list
Your tracking list is empty




NASA's NSSDC Master Catalog

Two Line Element Set (TLE):
1 21252U 91009BK  23274.28956111  .00000076  00000-0  79739-3 0  9993
2 21252  74.1028 286.7965 0125175  20.1765 354.8978 12.24808209455791
Source of the keplerian elements: AFSPC